FW9086 Weather Reports


Display with metric or nautical units.
time (UTC)temp
F
wind
direction
speed
MPH
gust
MPH
rain 1hr
in
rain 24hr
in
rain mn
in
humidity
%
barometer
mb
20260905190908 91 178 0.0 0.0 0.00 0.00 0.00 65 1010.9
20260905190400 90 178 0.0 0.0 0.00 0.00 0.00 69 1011.1
20260905185859 89 135 0.0 0.0 0.00 0.00 0.00 68 1010.7
20260905185355 89 188 0.0 1.0 0.00 0.00 0.00 65 1011.0
20260905184853 89 233 2.0 2.0 0.00 0.00 0.00 65 1011.1
20260905184353 89 181 0.0 0.0 0.00 0.00 0.00 66 1011.4
20260905183851 89 225 2.0 2.0 0.00 0.00 0.00 67 1011.2
20260905183347 89 205 1.0 1.0 0.00 0.00 0.00 66 1011.3
20260905182842 89 234 3.0 5.0 0.00 0.00 0.00 65 1011.7
20260905182341 89 257 3.0 3.0 0.00 0.00 0.00 67 1011.3
20260905181837 90 208 0.0 1.0 0.00 0.00 0.00 65 1011.5
20260905181336 89 189 0.0 1.0 0.00 0.00 0.00 65 1011.6
20260905180836 89 230 2.0 2.0 0.00 0.00 0.00 63 1011.7
20260905180331 89 235 3.0 3.0 0.00 0.00 0.00 64 1011.8
20260905175826 89 249 2.0 2.0 0.00 0.00 0.00 62 1011.7
20260905175320 89 228 1.0 2.0 0.00 0.00 0.00 62 1011.8
20260905174815 89 212 1.0 1.0 0.00 0.00 0.00 62 1012.0
20260905174311 89 202 0.0 1.0 0.00 0.00 0.00 63 1011.9
20260905173807 89 173 0.0 1.0 0.00 0.00 0.00 63 1011.7
20260905173303 89 219 1.0 1.0 0.00 0.00 0.00 63 1011.9
20260905172803 89 196 1.0 1.0 0.00 0.00 0.00 60 1012.0
20260905172301 90 185 1.0 1.0 0.00 0.00 0.00 60 1012.0
20260905171757 89 189 1.0 1.0 0.00 0.00 0.00 63 1012.1
20260905171253 90 254 2.0 2.0 0.00 0.00 0.00 61 1012.2
20260905170749 89 182 0.0 1.0 0.00 0.00 0.00 63 1012.0
20260905170245 89 209 1.0 1.0 0.00 0.00 0.00 62 1012.2
20260905165744 89 198 0.0 1.0 0.00 0.00 0.00 62 1012.2
20260905165240 88 187 1.0 1.0 0.00 0.00 0.00 62 1012.4
20260905164740 87 174 0.0 1.0 0.00 0.00 0.00 66 1012.4
20260905164234 88 206 1.0 1.0 0.00 0.00 0.00 64 1012.6
20260905163730 89 180 0.0 1.0 0.00 0.00 0.00 62 1012.8
20260905163226 88 186 0.0 0.0 0.00 0.00 0.00 63 1012.5
20260905162722 87 84 1.0 1.0 0.00 0.00 0.00 65 1012.5
20260905162222 86 168 0.0 0.0 0.00 0.00 0.00 65 1012.5
20260905161717 87 223 0.0 1.0 0.00 0.00 0.00 62 1012.6
20260905161215 86 169 1.0 2.0 0.00 0.00 0.00 65 1012.8
20260905160713 86 182 0.0 0.0 0.00 0.00 0.00 64 1012.4
20260905160208 86 199 1.0 1.0 0.00 0.00 0.00 63 1012.5
20260905155702 87 173 0.0 0.0 0.00 0.00 0.00 63 1012.6
20260905155202 87 178 0.0 1.0 0.00 0.00 0.00 63 1012.8
20260905154656 86 173 0.0 1.0 0.00 0.00 0.00 67 1012.8
20260905154151 85 176 0.0 1.0 0.00 0.00 0.00 67 1012.8
20260905153647 84 176 0.0 1.0 0.00 0.00 0.00 67 1012.3
20260905153142 84 227 1.0 2.0 0.00 0.00 0.00 67 1012.5
20260905152637 84 180 1.0 1.0 0.00 0.00 0.00 70 1012.6
20260905152132 83 205 2.0 2.0 0.00 0.00 0.00 69 1012.8
20260905151627 83 202 1.0 1.0 0.00 0.00 0.00 69 1013.0
20260905151122 83 170 0.0 1.0 0.00 0.00 0.00 69 1012.9
20260905150618 84 219 1.0 1.0 0.00 0.00 0.00 66 1013.0
20260905150116 83 175 0.0 1.0 0.00 0.00 0.00 70 1012.8
20260905145614 83 173 0.0 0.0 0.00 0.00 0.00 69 1013.0
20260905145113 81 178 0.0 0.0 0.00 0.00 0.00 70 1013.0
20260905144608 80 156 0.0 1.0 0.00 0.00 0.00 74 1012.9
20260905144108 79 177 0.0 1.0 0.00 0.00 0.00 76 1013.2
20260905143602 78 186 0.0 1.0 0.00 0.00 0.00 75 1013.1
20260905143057 78 164 1.0 1.0 0.00 0.00 0.00 78 1013.2
20260905142556 78 195 1.0 1.0 0.00 0.00 0.00 79 1013.1
20260905142056 78 166 0.0 1.0 0.00 0.00 0.00 79 1012.9
20260905141550 78 153 0.0 0.0 0.00 0.00 0.00 78 1013.4
20260905141047 78 189 0.0 0.0 0.00 0.00 0.00 77 1013.1
20260905140542 77 209 2.0 2.0 0.00 0.00 0.00 76 1013.2
20260905140041 78 167 1.0 1.0 0.00 0.00 0.00 77 1013.2
20260905135537 77 164 0.0 1.0 0.00 0.00 0.00 77 1013.2
20260905135036 77 166 0.0 1.0 0.00 0.00 0.00 78 1013.0
20260905134531 77 162 0.0 1.0 0.00 0.00 0.00 78 1013.2
20260905134030 76 189 1.0 1.0 0.00 0.00 0.00 78 1013.4
20260905133525 76 140 0.0 1.0 0.00 0.00 0.00 79 1013.4
20260905133025 75 173 0.0 0.0 0.00 0.00 0.00 80 1013.2
20260905132525 75 154 1.0 1.0 0.00 0.00 0.00 81 1013.0
20260905132020 75 130 0.0 1.0 0.00 0.00 0.00 81 1013.0
20260905131515 75 170 1.0 1.0 0.00 0.00 0.00 80 1013.1
20260905131010 75 182 1.0 1.0 0.00 0.00 0.00 82 1013.2
20260905130509 74 134 1.0 1.0 0.00 0.00 0.00 81 1013.4
20260905130005 74 166 1.0 1.0 0.00 0.00 0.00 82 1013.2
20260905125459 74 167 0.0 0.0 0.00 0.00 0.00 83 1013.1
20260905124954 74 165 1.0 1.0 0.00 0.00 0.00 84 1013.4
20260905124451 74 136 0.0 1.0 0.00 0.00 0.00 83 1013.3
20260905123946 74 141 1.0 1.0 0.00 0.00 0.00 84 1013.2
20260905123443 74 155 1.0 1.0 0.00 0.00 0.00 84 1013.2
20260905122942 74 147 1.0 2.0 0.00 0.00 0.00 84 1013.4
20260905122437 74 158 2.0 2.0 0.00 0.00 0.00 84 1013.2
20260905121932 74 147 1.0 2.0 0.00 0.00 0.00 83 1013.3
20260905121428 74 135 1.0 2.0 0.00 0.00 0.00 85 1013.3
20260905120927 74 150 1.0 1.0 0.00 0.00 0.00 84 1013.3
20260905120422 74 128 1.0 1.0 0.00 0.00 0.00 84 1013.4
20260905115916 74 138 1.0 1.0 0.00 0.00 0.00 85 1013.0
20260905115416 74 153 1.0 1.0 0.00 0.00 0.00 84 1013.2
20260905114911 74 138 2.0 2.0 0.00 0.00 0.00 84 1012.9
20260905114410 74 128 3.0 3.0 0.00 0.00 0.00 84 1012.8
20260905113910 74 111 1.0 1.0 0.00 0.00 0.00 86 1012.9
20260905113405 75 127 1.0 1.0 0.00 0.00 0.00 86 1012.9
20260905112901 75 97 1.0 1.0 0.00 0.00 0.00 86 1012.5
20260905112355 76 118 2.0 2.0 0.00 0.00 0.00 89 1012.5
20260905111851 76 97 4.0 5.0 0.00 0.00 0.00 95 1012.2
20260905111350 75 135 1.0 1.0 0.00 0.00 0.00 98 1012.2
20260905110850 75 77 1.0 2.0 0.00 0.00 0.00 98 1012.0
20260905110349 74 153 0.0 0.0 0.00 0.00 0.00 98 1011.6
20260905105845 75 144 0.0 0.0 0.00 0.00 0.00 98 1011.7
20260905105345 75 158 0.0 0.0 0.00 0.00 0.00 98 1011.6
20260905104839 75 173 0.0 0.0 0.00 0.00 0.00 98 1011.5
20260905104336 75 173 0.0 0.0 0.00 0.00 0.00 98 1011.4
20260905103835 75 162 0.0 0.0 0.00 0.00 0.00 98 1011.5
20260905103330 75 169 0.0 0.0 0.00 0.00 0.00 98 1011.6
20260905102826 75 163 0.0 0.0 0.00 0.00 0.00 98 1011.4
20260905102323 75 158 0.0 0.0 0.00 0.00 0.00 98 1011.4
20260905101822 75 153 0.0 0.0 0.00 0.00 0.00 98 1011.3
20260905101321 75 165 0.0 0.0 0.00 0.00 0.00 98 1011.1
20260905100816 75 165 0.0 0.0 0.00 0.00 0.00 98 1011.3
20260905100312 75 170 0.0 0.0 0.00 0.00 0.00 98 1011.1
20260905095811 75 170 0.0 0.0 0.00 0.00 0.00 98 1011.0
20260905095311 75 172 0.0 0.0 0.00 0.00 0.00 98 1011.3
20260905094805 75 197 0.0 0.0 0.00 0.00 0.00 98 1011.2
20260905094301 75 182 0.0 0.0 0.00 0.00 0.00 98 1011.2
20260905093754 75 170 0.0 0.0 0.00 0.00 0.00 98 1011.1
20260905093250 75 170 0.0 0.0 0.00 0.00 0.00 98 1011.3
20260905092746 75 174 0.0 0.0 0.00 0.00 0.00 98 1011.3
20260905092241 75 176 0.0 0.0 0.00 0.00 0.00 97 1011.1
20260905091740 76 197 0.0 0.0 0.00 0.00 0.00 97 1011.4
20260905091236 76 184 0.0 0.0 0.00 0.00 0.00 97 1011.4
20260905090734 76 171 0.0 0.0 0.00 0.00 0.00 97 1011.5
20260905090230 75 165 0.0 0.0 0.00 0.00 0.00 97 1011.4
20260905085729 75 163 0.0 0.0 0.00 0.00 0.00 97 1011.2
20260905085225 76 153 0.0 0.0 0.00 0.00 0.00 97 1011.1
20260905084724 76 161 0.0 0.0 0.00 0.00 0.00 97 1011.2
20260905084224 76 165 0.0 0.0 0.00 0.00 0.00 97 1011.2
20260905083719 76 165 0.0 0.0 0.00 0.00 0.00 97 1011.0
20260905083215 76 155 0.0 0.0 0.00 0.00 0.00 97 1011.4
20260905082711 76 150 0.0 0.0 0.00 0.00 0.00 97 1011.3
20260905082207 76 163 0.0 0.0 0.00 0.00 0.00 97 1011.2
20260905081706 76 159 0.0 0.0 0.00 0.00 0.00 97 1011.1
20260905081201 76 163 0.0 0.0 0.00 0.00 0.00 97 1010.9
20260905080701 76 174 0.0 0.0 0.00 0.00 0.00 98 1010.9
20260905080201 76 194 0.0 0.0 0.00 0.00 0.00 98 1010.7
20260905075700 76 211 0.0 0.0 0.00 0.00 0.00 99 1010.8
20260905075159 76 166 0.0 0.0 0.00 0.00 0.00 99 1010.7
20260905074658 76 166 0.0 0.0 0.00 0.00 0.00 99 1010.8
20260905074154 76 164 0.0 0.0 0.00 0.00 0.00 99 1010.8
20260905073650 76 166 0.0 0.0 0.00 0.00 0.00 99 1010.6
20260905073145 76 164 0.0 0.0 0.00 0.00 0.00 99 1010.7
20260905072645 76 170 0.0 0.0 0.00 0.00 0.00 99 1010.7
20260905072140 76 168 0.0 0.0 0.00 0.00 0.00 99 1010.5
20260905071636 76 168 0.0 0.0 0.00 0.00 0.00 99 1010.8
20260905071132 76 174 0.0 0.0 0.00 0.00 0.00 99 1010.5
20260905070627 76 177 0.0 0.0 0.00 0.00 0.00 99 1010.7
20260905070123 76 182 0.0 0.0 0.00 0.00 0.00 99 1010.7
20260905065621 76 174 0.0 0.0 0.00 0.00 0.00 99 1010.7
20260905065116 76 177 0.0 0.0 0.00 0.00 0.00 98 1010.8
20260905064611 76 182 0.0 0.0 0.00 0.00 0.00 98 1010.8
20260905064107 76 197 0.0 0.0 0.00 0.00 0.00 98 1011.0
20260905063605 77 184 0.0 0.0 0.00 0.00 0.00 98 1011.2
20260905063102 77 175 0.0 0.0 0.00 0.00 0.00 98 1011.4
20260905062557 77 175 0.0 0.0 0.00 0.00 0.00 98 1011.4
20260905062056 77 174 0.0 0.0 0.00 0.00 0.00 98 1011.6
20260905061551 77 176 0.0 0.0 0.00 0.00 0.00 98 1011.6
20260905061051 77 177 0.0 0.0 0.00 0.00 0.00 98 1011.6
20260905060547 77 169 0.0 0.0 0.00 0.00 0.00 98 1011.5
20260905060042 77 172 0.0 0.0 0.00 0.00 0.00 98 1011.6
20260905055541 77 173 0.0 0.0 0.00 0.00 0.00 97 1011.6
20260905055036 77 172 0.0 0.0 0.00 0.00 0.00 97 1011.8
20260905054532 77 174 0.0 0.0 0.00 0.00 0.00 97 1011.8
20260905054027 77 171 0.0 0.0 0.00 0.00 0.00 97 1011.7
20260905053527 77 169 0.0 0.0 0.00 0.00 0.00 97 1011.9
20260905053023 77 168 0.0 0.0 0.00 0.00 0.00 97 1011.9
20260905052521 77 168 0.0 0.0 0.00 0.00 0.00 97 1011.9
20260905052016 77 170 0.0 0.0 0.00 0.00 0.00 97 1011.9
20260905051512 77 171 0.0 0.0 0.00 0.00 0.00 97 1011.8
20260905051009 77 170 0.0 0.0 0.00 0.00 0.00 96 1012.0
20260905050504 78 171 0.0 0.0 0.00 0.00 0.00 96 1011.9
20260905050001 78 170 0.0 0.0 0.00 0.00 0.00 96 1011.9
20260905045455 78 169 0.0 0.0 0.00 0.00 0.00 96 1011.9
20260905044950 78 169 0.0 0.0 0.00 0.00 0.00 96 1012.0
20260905044445 78 169 0.0 0.0 0.00 0.00 0.00 96 1011.9
20260905043945 78 169 0.0 0.0 0.00 0.00 0.00 95 1011.9
20260905043444 78 168 0.0 0.0 0.00 0.00 0.00 95 1011.9
20260905042939 78 168 0.0 0.0 0.00 0.00 0.00 95 1012.0
20260905042433 78 168 0.0 0.0 0.00 0.00 0.00 95 1012.0
20260905041929 78 172 0.0 0.0 0.00 0.00 0.00 94 1011.8
20260905041424 78 177 0.0 0.0 0.00 0.00 0.00 94 1012.0
20260905040924 78 177 0.0 0.0 0.00 0.00 0.00 94 1012.1
20260905040418 78 173 0.0 0.0 0.00 0.00 0.00 94 1012.1
20260905035918 79 172 0.0 0.0 0.00 0.00 0.00 94 1012.2
20260905035413 79 172 0.0 0.0 0.00 0.00 0.00 93 1012.3
20260905034910 79 172 0.0 0.0 0.00 0.00 0.00 93 1011.9
20260905034405 79 176 0.0 0.0 0.00 0.00 0.00 93 1012.1
20260905033904 79 177 0.0 0.0 0.00 0.00 0.00 93 1012.1
20260905033359 79 174 0.0 0.0 0.00 0.00 0.00 93 1012.1
20260905032858 79 175 0.0 0.0 0.00 0.00 0.00 92 1012.2
20260905032354 79 175 0.0 0.0 0.00 0.00 0.00 92 1012.2
20260905031849 79 175 0.0 0.0 0.00 0.00 0.00 92 1012.1
20260905031345 79 175 0.0 0.0 0.00 0.00 0.00 92 1012.3
20260905030840 80 174 0.0 0.0 0.00 0.00 0.00 92 1012.3
20260905030336 80 175 0.0 0.0 0.00 0.00 0.00 92 1012.2
20260905025835 80 174 0.0 0.0 0.00 0.00 0.00 91 1012.1
20260905025330 80 174 0.0 0.0 0.00 0.00 0.00 91 1012.3
20260905024827 80 177 0.0 0.0 0.00 0.00 0.00 91 1012.1
20260905024321 80 172 0.0 0.0 0.00 0.00 0.00 91 1012.1
20260905023817 80 173 0.0 0.0 0.00 0.00 0.00 90 1012.0
20260905023312 80 173 0.0 0.0 0.00 0.00 0.00 89 1012.0
20260905022811 80 173 0.0 0.0 0.00 0.00 0.00 89 1012.0
20260905022307 80 173 0.0 0.0 0.00 0.00 0.00 89 1011.9
20260905021806 80 173 0.0 0.0 0.00 0.00 0.00 89 1011.8
20260905021301 81 172 0.0 0.0 0.00 0.00 0.00 89 1012.2
20260905020756 81 173 0.0 0.0 0.00 0.00 0.00 88 1012.0
20260905020251 81 172 0.0 0.0 0.00 0.00 0.00 87 1012.0
20260905015750 81 173 0.0 0.0 0.00 0.00 0.00 87 1011.8
20260905015244 81 167 0.0 0.0 0.00 0.00 0.00 87 1011.9
20260905014743 81 166 0.0 0.0 0.00 0.00 0.00 87 1011.8
20260905014239 82 169 0.0 0.0 0.00 0.00 0.00 86 1011.9
20260905013735 82 167 0.0 0.0 0.00 0.00 0.00 85 1011.8
20260905013231 82 166 0.0 0.0 0.00 0.00 0.00 85 1011.8
20260905012726 82 165 0.0 0.0 0.00 0.00 0.00 86 1011.8
20260905012221 82 166 0.0 0.0 0.00 0.00 0.00 85 1011.6
20260905011718 82 167 0.0 0.0 0.00 0.00 0.00 85 1011.7
20260905011208 82 167 0.0 0.0 0.00 0.00 0.00 85 1011.7
20260905010707 83 179 0.0 0.0 0.00 0.00 0.00 85 1011.7
20260905010203 83 186 0.0 1.0 0.00 0.00 0.00 83 1011.8
20260905005659 83 173 0.0 0.0 0.00 0.00 0.00 80 1011.8
20260905005155 83 165 0.0 0.0 0.00 0.00 0.00 81 1011.7
20260905004649 84 170 0.0 0.0 0.00 0.00 0.00 80 1011.6
20260905004144 84 175 0.0 0.0 0.00 0.00 0.00 82 1011.4
20260905003639 84 179 0.0 0.0 0.00 0.00 0.00 79 1011.5
20260905003135 84 167 0.0 0.0 0.00 0.00 0.00 78 1011.6
20260905002631 85 167 0.0 0.0 0.00 0.00 0.00 78 1011.8
20260905002125 85 167 0.0 0.0 0.00 0.00 0.00 77 1011.8
20260905001621 85 164 0.0 0.0 0.00 0.00 0.00 77 1011.6
20260905001120 85 164 0.0 0.0 0.00 0.00 0.00 76 1011.6
20260905000615 86 159 0.0 0.0 0.00 0.00 0.00 76 1011.6
20260905000111 86 166 0.0 0.0 0.00 0.00 0.00 76 1011.6
20260904235606 86 168 0.0 0.0 0.00 0.00 0.00 75 1011.4
20260904235105 86 169 0.0 0.0 0.00 0.00 0.00 75 1011.7
20260904234600 87 164 0.0 0.0 0.00 0.00 0.00 74 1011.6
20260904234056 87 168 0.0 0.0 0.00 0.00 0.00 74 1011.5
20260904233556 87 168 0.0 0.0 0.00 0.00 0.00 73 1011.8
20260904233052 87 168 0.0 0.0 0.00 0.00 0.00 72 1011.7
20260904232549 87 170 0.0 0.0 0.00 0.00 0.00 73 1011.9
20260904232045 88 172 0.0 0.0 0.00 0.00 0.00 72 1011.5
20260904231540 88 166 0.0 0.0 0.00 0.00 0.00 71 1011.5
20260904231036 88 166 0.0 0.0 0.00 0.00 0.00 70 1011.5
20260904230534 88 172 0.0 0.0 0.00 0.00 0.00 72 1011.4
20260904230030 89 174 0.0 0.0 0.00 0.00 0.00 70 1011.3
20260904225528 89 163 0.0 0.0 0.00 0.00 0.00 71 1011.3
20260904225027 89 162 0.0 0.0 0.00 0.00 0.00 71 1011.3
20260904224523 89 173 0.0 0.0 0.00 0.00 0.00 69 1011.4
20260904224023 89 173 0.0 1.0 0.00 0.00 0.00 69 1011.5
20260904223521 90 174 0.0 1.0 0.00 0.00 0.00 71 1011.3
20260904223018 90 166 0.0 0.0 0.00 0.00 0.00 68 1011.3
20260904222513 90 192 1.0 1.0 0.00 0.00 0.00 66 1011.3
20260904222008 90 171 0.0 0.0 0.00 0.00 0.00 70 1011.3
20260904221503 90 253 1.0 1.0 0.00 0.00 0.00 69 1011.2
20260904220957 90 163 0.0 0.0 0.00 0.00 0.00 68 1011.3
20260904220457 91 173 0.0 0.0 0.00 0.00 0.00 68 1011.3
20260904215952 91 173 0.0 0.0 0.00 0.00 0.00 68 1011.3
20260904215448 92 171 0.0 0.0 0.00 0.00 0.00 65 1011.1
20260904214943 92 175 0.0 0.0 0.00 0.00 0.00 62 1011.4
20260904214438 93 188 0.0 0.0 0.00 0.00 0.00 62 1011.0
20260904213933 94 202 1.0 2.0 0.00 0.00 0.00 61 1011.4
20260904213426 94 183 0.0 0.0 0.00 0.00 0.00 58 1011.3
20260904212923 97 191 1.0 1.0 0.00 0.00 0.00 58 1011.4
20260904212422 97 186 0.0 0.0 0.00 0.00 0.00 55 1011.0
20260904211918 97 195 0.0 0.0 0.00 0.00 0.00 54 1011.3
20260904211413 98 187 0.0 0.0 0.00 0.00 0.00 55 1011.5
20260904210908 98 195 0.0 0.0 0.00 0.00 0.00 56 1011.4
20260904210407 98 190 0.0 1.0 0.00 0.00 0.00 58 1011.4
20260904205903 96 191 0.0 1.0 0.00 0.00 0.00 59 1011.5
20260904205358 96 267 2.0 2.0 0.00 0.00 0.00 59 1011.7
20260904204855 95 238 3.0 3.0 0.00 0.00 0.00 61 1011.7
20260904204351 95 256 3.0 3.0 0.00 0.00 0.00 59 1011.5
20260904203847 97 205 1.0 1.0 0.00 0.00 0.00 59 1011.6
20260904203343 98 179 1.0 1.0 0.00 0.00 0.00 56 1011.9
20260904202839 99 228 0.0 1.0 0.00 0.00 0.00 55 1011.9
20260904202335 98 175 0.0 0.0 0.00 0.00 0.00 54 1012.0
20260904201830 98 185 0.0 0.0 0.00 0.00 0.00 56 1012.1
20260904201330 98 172 2.0 2.0 0.00 0.00 0.00 56 1012.1
20260904200826 97 207 1.0 1.0 0.00 0.00 0.00 57 1012.1
20260904200324 96 189 0.0 1.0 0.00 0.00 0.00 58 1012.0
20260904195819 95 187 1.0 1.0 0.00 0.00 0.00 60 1012.3
20260904195317 95 226 2.0 2.0 0.00 0.00 0.00 61 1012.1
20260904194812 95 211 2.0 2.0 0.00 0.00 0.00 56 1012.3
20260904194312 96 168 0.0 0.0 0.00 0.00 0.00 59 1012.3
20260904193807 96 209 1.0 1.0 0.00 0.00 0.00 54 1012.4
20260904193302 96 189 0.0 0.0 0.00 0.00 0.00 57 1012.6
20260904192757 96 188 1.0 1.0 0.00 0.00 0.00 56 1012.6
20260904192253 95 209 1.0 1.0 0.00 0.00 0.00 56 1012.9
20260904191749 95 231 3.0 3.0 0.00 0.00 0.00 57 1012.8